QPF
0.00 0.00 0.00 0.03 0.07 0.06 0.04 0.02 0.01 0.00 0.00 0.00 0.00 0.00 0.00 0.00 0.00 0.00 0.00 0.01 0.01 0.01 0.01 0.01 0.01 0.01 0.00 0.00 0.00 0.00 0.00 0.00 0.00 0.00 0.00 0.00 0.01 0.01 0.00 0.01 0.01 0.03 0.04
0.00 0.00 0.00 0.02 0.05 0.05 0.04 0.03 0.01 0.01 0.00 0.00 0.00 0.00 0.00 0.00 0.00 0.00 0.00 0.01 0.01 0.02 0.02 0.01 0.01 0.00 0.00 0.00 0.00 0.00 0.00 0.00 0.00 0.00 0.00 0.00 0.00 0.00 0.00 0.00 0.01 0.01 0.02
0.00 0.00 0.00 0.01 0.04 0.04 0.03 0.02 0.02 0.01 0.01 0.00 0.00 0.00 0.00 0.00 0.00 0.00 0.00 0.01 0.02 0.02 0.02 0.01 0.01 0.00 0.00 0.00 0.00 0.00 0.00 0.00 0.00 0.00 0.00 0.00 0.00 0.01 0.00 0.00 0.00 0.01 0.01
0.00 0.00 0.00 0.00 0.02 0.03 0.03 0.02 0.01 0.01 0.01 0.00 0.00 0.00 0.00 0.00 0.00 0.00 0.01 0.01 0.02 0.02 0.01 0.01 0.00 0.00 0.00 0.00 0.00 0.00 0.00 0.00 0.00 0.00 0.00 0.00 0.00 0.01 0.01 0.01 0.01 0.01 0.01
0.00 0.00 0.00 0.00 0.02 0.02 0.02 0.02 0.01 0.01 0.01 0.00 0.00 0.00 0.00 0.00 0.00 0.00 0.01 0.01 0.01 0.01 0.01 0.01 0.00 0.00 0.00 0.00 0.00 0.00 0.00 0.00 0.00 0.00 0.00 0.00 0.01 0.01 0.01 0.01 0.01 0.01 0.01
0.00 0.00 0.00 0.00 0.01 0.02 0.02 0.02 0.02 0.02 0.01 0.00 0.00 0.00 0.00 0.00 0.00 0.00 0.00 0.01 0.01 0.01 0.00 0.00 0.00 0.00 0.00 0.00 0.00 0.00 0.00 0.00 0.00 0.00 0.00 0.00 0.01 0.02 0.01 0.01 0.01 0.01 0.01
0.00 0.00 0.00 0.00 0.01 0.02 0.03 0.02 0.02 0.02 0.01 0.00 0.00 0.00 0.00 0.00 0.00 0.00 0.00 0.00 0.00 0.00 0.00 0.00 0.00 0.00 0.00 0.00 0.00 0.00 0.00 0.00 0.00 0.00 0.00 0.01 0.02 0.02 0.02 0.02 0.01 0.01 0.01
0.00 0.00 0.00 0.00 0.00 0.01 0.02 0.02 0.02 0.02 0.01 0.00 0.00 0.00 0.00 0.00 0.00 0.00 0.00 0.00 0.00 0.00 0.00 0.00 0.00 0.00 0.00 0.00 0.00 0.00 0.00 0.00 0.00 0.00 0.01 0.01 0.02 0.03 0.03 0.02 0.02 0.02 0.02
0.00 0.00 0.00 0.00 0.00 0.00 0.00 0.01 0.01 0.01 0.01 0.00 0.00 0.00 0.00 0.00 0.00 0.00 0.00 0.00 0.00 0.00 0.00 0.00 0.00 0.00 0.00 0.00 0.00 0.00 0.00 0.00 0.00 0.00 0.01 0.02 0.03 0.03 0.03 0.03 0.02 0.02 0.02
0.00 0.00 0.00 0.00 0.00 0.01 0.00 0.00 0.00 0.01 0.00 0.00 0.00 0.00 0.00 0.00 0.00 0.00 0.00 0.00 0.00 0.00 0.00 0.00 0.00 0.00 0.00 0.00 0.00 0.00 0.00 0.00 0.00 0.00 0.01 0.02 0.03 0.03 0.03 0.03 0.02 0.02 0.02
0.00 0.01 0.01 0.01 0.01 0.01 0.02 0.01 0.01 0.01 0.01 0.00 0.00 0.00 0.00 0.00 0.00 0.00 0.00 0.00 0.00 0.00 0.00 0.00 0.00 0.00 0.00 0.00 0.00 0.00 0.00 0.00 0.00 0.00 0.02 0.03 0.03 0.03 0.03 0.02 0.02 0.01 0.01
0.00 0.00 0.00 0.01 0.01 0.02 0.02 0.01 0.02 0.02 0.02 0.01 0.01 0.01 0.01 0.01 0.01 0.00 0.00 0.00 0.00 0.00 0.00 0.00 0.00 0.00 0.00 0.00 0.00 0.00 0.00 0.00 0.00 0.00 0.01 0.03 0.03 0.02 0.02 0.01 0.01 0.01 0.01
0.00 0.00 0.00 0.00 0.01 0.02 0.02 0.02 0.03 0.05 0.05 0.05 0.03 0.02 0.02 0.01 0.00 0.00 0.00 0.00 0.00 0.00 0.00 0.00 0.00 0.00 0.00 0.00 0.00 0.00 0.00 0.00 0.00 0.00 0.01 0.01 0.02 0.02 0.01 0.01 0.01 0.01 0.01
0.00 0.00 0.00 0.00 0.00 0.01 0.02 0.02 0.03 0.04 0.04 0.05 0.04 0.02 0.02 0.01 0.00 0.00 0.00 0.00 0.00 0.00 0.00 0.00 0.00 0.00 0.00 0.00 0.00 0.00 0.00 0.00 0.00 0.00 0.00 0.01 0.01 0.01 0.01 0.01 0.01 0.01 0.01
0.00 0.00 0.00 0.00 0.00 0.00 0.01 0.01 0.02 0.03 0.03 0.04 0.04 0.03 0.02 0.01 0.01 0.01 0.00 0.00 0.00 0.00 0.00 0.00 0.00 0.00 0.00 0.00 0.00 0.00 0.00 0.00 0.00 0.00 0.00 0.00 0.00 0.01 0.01 0.01 0.01 0.01 0.01
0.00 0.00 0.00 0.00 0.00 0.00 0.00 0.01 0.01 0.02 0.02 0.03 0.03 0.02 0.02 0.02 0.01 0.01 0.00 0.00 0.00 0.00 0.00 0.00 0.00 0.00 0.00 0.00 0.00 0.00 0.00 0.00 0.00 0.00 0.00 0.00 0.00 0.00 0.00 0.00 0.00 0.00 0.00
0.00 0.00 0.00 0.00 0.00 0.00 0.00 0.00 0.00 0.01 0.01 0.02 0.03 0.02 0.02 0.02 0.02 0.01 0.00 0.00 0.00 0.00 0.00 0.00 0.00 0.00 0.00 0.00 0.00 0.00 0.00 0.00 0.00 0.00 0.00 0.00 0.00 0.00 0.00 0.00 0.00 0.00 0.00
0.00 0.00 0.00 0.00 0.00 0.00 0.00 0.00 0.00 0.00 0.01 0.01 0.02 0.02 0.02 0.02 0.02 0.01 0.01 0.01 0.00 0.00 0.00 0.00 0.00 0.00 0.00 0.00 0.00 0.00 0.00 0.00 0.00 0.00 0.00 0.00 0.00 0.00 0.00 0.00 0.00 0.00 0.00
0.00 0.00 0.00 0.00 0.00 0.00 0.00 0.00 0.00 0.00 0.00 0.00 0.01 0.02 0.02 0.02 0.02 0.01 0.01 0.01 0.00 0.00 0.00 0.00 0.00 0.00 0.00 0.00 0.00 0.00 0.00 0.00 0.00 0.00 0.00 0.00 0.00 0.00 0.00 0.00 0.00 0.00 0.00
0.00 0.00 0.00 0.00 0.00 0.00 0.00 0.00 0.00 0.00 0.00 0.00 0.00 0.01 0.01 0.02 0.02 0.02 0.01 0.01 0.00 0.01 0.01 0.00 0.00 0.00 0.00 0.00 0.00 0.00 0.00 0.00 0.00 0.00 0.00 0.00 0.00 0.00 0.00 0.00 0.00 0.00 0.00
0.00 0.00 0.00 0.00 0.00 0.00 0.00 0.00 0.00 0.00 0.00 0.00 0.00 0.00 0.00 0.01 0.01 0.01 0.01 0.01 0.01 0.01 0.01 0.00 0.00 0.00 0.00 0.00 0.00 0.00 0.00 0.00 0.00 0.00 0.00 0.00 0.00 0.00 0.00 0.00 0.00 0.00 0.00
0.00 0.00 0.00 0.00 0.00 0.00 0.00 0.00 0.00 0.00 0.00 0.00 0.00 0.00 0.00 0.00 0.01 0.01 0.01 0.01 0.01 0.01 0.01 0.01 0.01 0.00 0.00 0.00 0.00 0.00 0.00 0.00 0.00 0.00 0.00 0.00 0.00 0.00 0.00 0.00 0.00 0.00 0.00
0.00 0.00 0.00 0.00 0.00 0.00 0.00 0.00 0.00 0.00 0.00 0.00 0.00 0.00 0.00 0.00 0.00 0.01 0.01 0.01 0.01 0.01 0.01 0.01 0.00 0.00 0.00 0.00 0.00 0.00 0.00 0.00 0.00 0.00 0.00 0.00 0.00 0.00 0.00 0.00 0.00 0.00 0.00
0.00 0.00 0.00 0.00 0.00 0.00 0.00 0.00 0.00 0.00 0.00 0.00 0.00 0.00 0.00 0.00 0.00 0.01 0.01 0.01 0.01 0.01 0.01 0.00 0.00 0.00 0.00 0.00 0.00 0.00 0.00 0.00 0.00 0.00 0.00 0.00 0.00 0.00 0.00 0.00 0.00 0.00 0.00
0.00 0.00 0.00 0.00 0.00 0.00 0.00 0.00 0.00 0.00 0.00 0.00 0.00 0.00 0.00 0.00 0.00 0.00 0.01 0.01 0.01 0.01 0.01 0.01 0.01 0.01 0.00 0.00 0.00 0.00 0.00 0.00 0.00 0.00 0.00 0.00 0.00 0.00 0.00 0.00 0.00 0.00 0.00
0.00 0.00 0.00 0.00 0.00 0.00 0.00 0.00 0.00 0.00 0.00 0.00 0.00 0.00 0.00 0.00 0.00 0.00 0.01 0.01 0.01 0.01 0.01 0.01 0.01 0.01 0.01 0.01 0.01 0.01 0.00 0.00 0.00 0.00 0.00 0.00 0.00 0.00 0.00 0.00 0.00 0.00 0.00
MSLP
1019.04 1019.08 1019.18 1019.37 1019.64 1019.96 1020.29 1020.59 1020.80 1020.92 1020.93 1020.85 1020.73 1020.60 1020.51 1020.46 1020.47 1020.54 1020.64 1020.75 1020.87 1020.99 1021.10 1021.20 1021.30 1021.41 1021.50 1021.58 1021.65 1021.68 1021.69 1021.68 1021.65 1021.62 1021.59 1021.56 1021.51 1021.45 1021.37 1021.26 1021.13 1020.99 1020.85
1018.80 1018.94 1019.14 1019.41 1019.75 1020.12 1020.48 1020.77 1020.99 1021.09 1021.11 1021.06 1020.98 1020.91 1020.87 1020.89 1020.95 1021.05 1021.16 1021.28 1021.39 1021.50 1021.60 1021.71 1021.81 1021.92 1022.02 1022.10 1022.16 1022.19 1022.19 1022.18 1022.16 1022.15 1022.14 1022.14 1022.13 1022.10 1022.04 1021.94 1021.80 1021.64 1021.49
1018.60 1018.82 1019.10 1019.44 1019.83 1020.23 1020.60 1020.90 1021.12 1021.24 1021.27 1021.26 1021.23 1021.23 1021.26 1021.33 1021.44 1021.56 1021.69 1021.81 1021.92 1022.02 1022.11 1022.20 1022.31 1022.40 1022.49 1022.55 1022.59 1022.60 1022.58 1022.57 1022.56 1022.57 1022.61 1022.65 1022.69 1022.71 1022.68 1022.60 1022.47 1022.32 1022.16
1018.47 1018.75 1019.08 1019.48 1019.90 1020.33 1020.72 1021.03 1021.25 1021.39 1021.46 1021.48 1021.51 1021.56 1021.64 1021.76 1021.91 1022.06 1022.20 1022.33 1022.43 1022.53 1022.62 1022.71 1022.80 1022.89 1022.95 1022.98 1022.98 1022.96 1022.92 1022.89 1022.89 1022.93 1023.01 1023.10 1023.20 1023.26 1023.27 1023.23 1023.12 1022.99 1022.84
1018.40 1018.72 1019.11 1019.54 1020.01 1020.46 1020.87 1021.20 1021.44 1021.59 1021.68 1021.75 1021.81 1021.90 1022.02 1022.17 1022.34 1022.51 1022.67 1022.81 1022.93 1023.04 1023.14 1023.24 1023.33 1023.40 1023.44 1023.44 1023.40 1023.33 1023.26 1023.22 1023.21 1023.27 1023.38 1023.52 1023.66 1023.77 1023.83 1023.82 1023.74 1023.63 1023.50
1018.40 1018.76 1019.18 1019.65 1020.15 1020.64 1021.07 1021.42 1021.68 1021.85 1021.96 1022.05 1022.14 1022.25 1022.39 1022.56 1022.74 1022.93 1023.11 1023.27 1023.41 1023.55 1023.68 1023.81 1023.91 1023.98 1024.00 1023.97 1023.89 1023.79 1023.68 1023.61 1023.60 1023.66 1023.78 1023.95 1024.12 1024.27 1024.36 1024.39 1024.34 1024.26 1024.16
1018.45 1018.82 1019.28 1019.79 1020.33 1020.84 1021.31 1021.68 1021.96 1022.15 1022.28 1022.38 1022.48 1022.60 1022.75 1022.93 1023.12 1023.32 1023.52 1023.71 1023.89 1024.06 1024.24 1024.39 1024.52 1024.61 1024.63 1024.58 1024.48 1024.35 1024.21 1024.12 1024.08 1024.13 1024.26 1024.44 1024.63 1024.80 1024.91 1024.96 1024.95 1024.89 1024.81
1018.53 1018.91 1019.38 1019.92 1020.49 1021.04 1021.53 1021.92 1022.22 1022.44 1022.58 1022.70 1022.81 1022.95 1023.11 1023.30 1023.50 1023.72 1023.93 1024.15 1024.36 1024.57 1024.79 1024.98 1025.14 1025.25 1025.29 1025.25 1025.14 1025.00 1024.85 1024.74 1024.70 1024.73 1024.84 1025.01 1025.20 1025.37 1025.49 1025.56 1025.57 1025.54 1025.49
1018.61 1018.99 1019.47 1020.02 1020.60 1021.17 1021.68 1022.09 1022.41 1022.65 1022.82 1022.97 1023.11 1023.28 1023.46 1023.68 1023.90 1024.13 1024.36 1024.60 1024.83 1025.07 1025.31 1025.53 1025.73 1025.86 1025.93 1025.92 1025.84 1025.71 1025.57 1025.46 1025.41 1025.43 1025.52 1025.67 1025.84 1026.00 1026.12 1026.19 1026.22 1026.21 1026.20
1018.68 1019.04 1019.50 1020.04 1020.62 1021.19 1021.70 1022.13 1022.47 1022.74 1022.95 1023.14 1023.34 1023.56 1023.80 1024.05 1024.31 1024.56 1024.81 1025.05 1025.29 1025.53 1025.78 1026.01 1026.23 1026.39 1026.50 1026.53 1026.49 1026.41 1026.30 1026.22 1026.17 1026.19 1026.26 1026.38 1026.52 1026.66 1026.77 1026.85 1026.88 1026.90 1026.91
1018.71 1019.03 1019.46 1019.98 1020.52 1021.07 1021.56 1021.99 1022.35 1022.65 1022.92 1023.18 1023.46 1023.75 1024.07 1024.38 1024.69 1024.98 1025.24 1025.48 1025.71 1025.94 1026.17 1026.40 1026.62 1026.81 1026.96 1027.04 1027.07 1027.04 1027.00 1026.95 1026.92 1026.94 1027.00 1027.09 1027.21 1027.32 1027.41 1027.48 1027.53 1027.57 1027.60
1018.67 1018.96 1019.35 1019.81 1020.32 1020.81 1021.28 1021.69 1022.06 1022.40 1022.72 1023.06 1023.43 1023.82 1024.23 1024.63 1025.00 1025.33 1025.61 1025.85 1026.06 1026.27 1026.47 1026.69 1026.91 1027.12 1027.31 1027.45 1027.55 1027.60 1027.62 1027.62 1027.63 1027.65 1027.70 1027.76 1027.85 1027.93 1028.00 1028.07 1028.13 1028.18 1028.24
1018.55 1018.81 1019.16 1019.57 1020.01 1020.45 1020.87 1021.26 1021.63 1021.99 1022.36 1022.78 1023.24 1023.73 1024.23 1024.72 1025.17 1025.55 1025.86 1026.11 1026.31 1026.50 1026.68 1026.89 1027.11 1027.35 1027.58 1027.78 1027.95 1028.08 1028.17 1028.23 1028.27 1028.30 1028.33 1028.37 1028.42 1028.47 1028.53 1028.59 1028.65 1028.72 1028.79
1018.33 1018.58 1018.89 1019.26 1019.64 1020.03 1020.40 1020.75 1021.10 1021.47 1021.88 1022.35 1022.88 1023.45 1024.04 1024.62 1025.13 1025.58 1025.93 1026.21 1026.43 1026.62 1026.81 1027.02 1027.27 1027.53 1027.81 1028.09 1028.33 1028.53 1028.69 1028.79 1028.86 1028.90 1028.92 1028.93 1028.94 1028.96 1028.99 1029.04 1029.10 1029.17 1029.26
1018.00 1018.25 1018.56 1018.90 1019.24 1019.59 1019.92 1020.24 1020.56 1020.92 1021.34 1021.84 1022.40 1023.02 1023.66 1024.29 1024.87 1025.38 1025.79 1026.12 1026.39 1026.63 1026.86 1027.12 1027.41 1027.73 1028.07 1028.41 1028.73 1029.00 1029.21 1029.36 1029.44 1029.48 1029.49 1029.47 1029.44 1029.43 1029.43 1029.45 1029.50 1029.58 1029.67
1017.54 1017.83 1018.15 1018.49 1018.83 1019.16 1019.47 1019.76 1020.07 1020.41 1020.81 1021.28 1021.84 1022.45 1023.11 1023.76 1024.38 1024.95 1025.43 1025.84 1026.20 1026.53 1026.85 1027.19 1027.56 1027.96 1028.37 1028.78 1029.16 1029.49 1029.75 1029.94 1030.05 1030.09 1030.08 1030.04 1029.98 1029.93 1029.89 1029.89 1029.92 1029.97 1030.05
1016.97 1017.30 1017.67 1018.04 1018.40 1018.74 1019.06 1019.36 1019.65 1019.96 1020.32 1020.75 1021.25 1021.83 1022.44 1023.09 1023.73 1024.33 1024.90 1025.41 1025.88 1026.33 1026.77 1027.23 1027.70 1028.19 1028.69 1029.17 1029.62 1030.00 1030.32 1030.54 1030.67 1030.72 1030.71 1030.66 1030.58 1030.50 1030.43 1030.40 1030.39 1030.41 1030.46
1016.29 1016.68 1017.09 1017.52 1017.94 1018.33 1018.68 1019.00 1019.30 1019.60 1019.92 1020.28 1020.71 1021.20 1021.75 1022.35 1022.98 1023.62 1024.25 1024.86 1025.46 1026.04 1026.62 1027.20 1027.79 1028.38 1028.96 1029.52 1030.02 1030.46 1030.82 1031.09 1031.27 1031.35 1031.36 1031.32 1031.24 1031.14 1031.06 1030.99 1030.94 1030.92 1030.93
1015.55 1015.97 1016.44 1016.92 1017.41 1017.87 1018.29 1018.67 1019.00 1019.30 1019.59 1019.89 1020.23 1020.63 1021.10 1021.63 1022.23 1022.88 1023.56 1024.26 1024.97 1025.68 1026.38 1027.08 1027.77 1028.44 1029.09 1029.70 1030.27 1030.76 1031.18 1031.51 1031.75 1031.89 1031.96 1031.96 1031.90 1031.82 1031.73 1031.64 1031.56 1031.50 1031.46
1014.75 1015.20 1015.70 1016.24 1016.79 1017.34 1017.85 1018.30 1018.69 1019.02 1019.30 1019.56 1019.83 1020.14 1020.52 1020.98 1021.54 1022.18 1022.89 1023.65 1024.44 1025.25 1026.04 1026.82 1027.57 1028.29 1028.98 1029.63 1030.24 1030.78 1031.27 1031.68 1032.00 1032.24 1032.40 1032.48 1032.49 1032.45 1032.37 1032.28 1032.18 1032.08 1032.00
1013.96 1014.40 1014.91 1015.48 1016.09 1016.71 1017.31 1017.85 1018.32 1018.69 1018.99 1019.24 1019.47 1019.72 1020.03 1020.44 1020.95 1021.57 1022.28 1023.07 1023.90 1024.74 1025.57 1026.37 1027.14 1027.87 1028.56 1029.21 1029.84 1030.44 1030.99 1031.50 1031.94 1032.30 1032.58 1032.77 1032.88 1032.91 1032.88 1032.81 1032.72 1032.61 1032.50
1013.23 1013.63 1014.12 1014.70 1015.34 1016.01 1016.68 1017.30 1017.84 1018.29 1018.63 1018.90 1019.12 1019.34 1019.62 1019.98 1020.45 1021.05 1021.75 1022.52 1023.34 1024.17 1024.97 1025.74 1026.46 1027.14 1027.79 1028.43 1029.06 1029.69 1030.32 1030.92 1031.49 1031.99 1032.41 1032.74 1032.97 1033.11 1033.16 1033.15 1033.08 1032.99 1032.88
1012.60 1012.96 1013.40 1013.95 1014.58 1015.28 1015.99 1016.67 1017.28 1017.79 1018.18 1018.48 1018.73 1018.96 1019.22 1019.57 1020.02 1020.58 1021.25 1021.99 1022.76 1023.52 1024.25 1024.93 1025.56 1026.15 1026.73 1027.31 1027.93 1028.58 1029.27 1029.96 1030.65 1031.29 1031.87 1032.34 1032.71 1032.96 1033.12 1033.19 1033.19 1033.15 1033.07
1012.12 1012.43 1012.82 1013.31 1013.91 1014.59 1015.30 1016.01 1016.65 1017.21 1017.65 1017.99 1018.27 1018.52 1018.80 1019.15 1019.59 1020.13 1020.76 1021.44 1022.13 1022.80 1023.43 1023.99 1024.50 1024.98 1025.46 1025.98 1026.56 1027.22 1027.94 1028.72 1029.51 1030.27 1030.98 1031.59 1032.09 1032.47 1032.74 1032.91 1033.01 1033.04 1033.04
1011.82 1012.09 1012.42 1012.86 1013.40 1014.03 1014.71 1015.39 1016.04 1016.60 1017.06 1017.43 1017.74 1018.02 1018.32 1018.67 1019.11 1019.64 1020.23 1020.85 1021.47 1022.04 1022.55 1022.99 1023.38 1023.74 1024.13 1024.58 1025.12 1025.76 1026.50 1027.32 1028.19 1029.04 1029.85 1030.57 1031.18 1031.68 1032.06 1032.35 1032.55 1032.69 1032.78
1011.72 1011.95 1012.24 1012.62 1013.09 1013.65 1014.27 1014.90 1015.49 1016.03 1016.48 1016.84 1017.15 1017.44 1017.76 1018.13 1018.57 1019.08 1019.64 1020.21 1020.76 1021.25 1021.67 1022.00 1022.29 1022.56 1022.87 1023.25 1023.74 1024.36 1025.10 1025.94 1026.83 1027.74 1028.60 1029.39 1030.09 1030.68 1031.16 1031.56 1031.88 1032.13 1032.33
Thickness
5694 5692 5690 5689 5688 5688 5688 5688 5688 5688 5689 5690 5690 5691 5692 5693 5694 5694 5695 5696 5695 5694 5694 5694 5693 5693 5693 5692 5693 5693 5692 5691 5691 5690 5690 5690 5689 5689 5689 5689 5688 5688 5688
5698 5693 5690 5688 5687 5686 5686 5685 5685 5685 5686 5686 5687 5687 5688 5689 5689 5690 5691 5691 5690 5690 5689 5689 5688 5688 5687 5687 5687 5688 5687 5687 5686 5685 5685 5684 5684 5683 5683 5683 5683 5682 5682
5700 5694 5690 5688 5687 5685 5684 5683 5683 5683 5683 5683 5683 5684 5684 5685 5685 5686 5686 5686 5686 5685 5684 5683 5683 5682 5682 5682 5683 5683 5683 5683 5682 5681 5680 5679 5678 5678 5677 5677 5676 5676 5676
5702 5696 5692 5689 5686 5684 5683 5682 5681 5681 5681 5680 5681 5681 5681 5681 5681 5682 5682 5682 5681 5680 5679 5678 5677 5677 5677 5677 5678 5678 5678 5678 5677 5676 5675 5674 5673 5672 5671 5671 5670 5670 5670
5704 5698 5693 5690 5687 5684 5682 5681 5680 5679 5679 5678 5678 5678 5678 5678 5678 5678 5678 5677 5676 5675 5674 5673 5672 5672 5672 5672 5673 5673 5673 5672 5671 5671 5669 5668 5667 5666 5666 5665 5664 5663 5663
5705 5699 5694 5690 5687 5685 5683 5681 5679 5679 5678 5677 5676 5676 5675 5675 5674 5674 5673 5673 5672 5671 5669 5668 5667 5667 5667 5667 5668 5668 5668 5667 5666 5665 5664 5663 5662 5661 5660 5659 5658 5657 5657
5706 5700 5695 5691 5688 5685 5683 5681 5679 5678 5676 5675 5674 5673 5673 5672 5671 5670 5669 5668 5667 5666 5665 5663 5662 5662 5661 5662 5662 5662 5662 5661 5660 5659 5658 5657 5656 5656 5654 5653 5652 5651 5650
5707 5701 5695 5692 5689 5686 5683 5681 5679 5677 5675 5674 5673 5672 5670 5669 5668 5667 5665 5664 5663 5661 5660 5658 5657 5657 5656 5656 5656 5657 5657 5656 5654 5653 5652 5651 5650 5650 5648 5647 5645 5644 5642
5707 5702 5696 5692 5689 5686 5683 5681 5679 5676 5674 5673 5671 5670 5668 5666 5665 5663 5662 5660 5658 5657 5655 5653 5652 5651 5651 5650 5650 5650 5650 5649 5648 5647 5646 5645 5644 5643 5641 5639 5638 5636 5634
5708 5703 5697 5693 5690 5686 5683 5681 5678 5676 5674 5671 5669 5668 5666 5664 5662 5660 5658 5656 5654 5652 5651 5649 5647 5646 5645 5645 5644 5644 5643 5642 5641 5640 5639 5638 5637 5636 5634 5632 5630 5628 5626
5707 5704 5700 5695 5692 5688 5684 5681 5678 5675 5673 5670 5668 5666 5664 5661 5659 5657 5655 5653 5650 5648 5646 5644 5642 5641 5640 5639 5638 5638 5636 5635 5633 5633 5632 5631 5630 5628 5626 5624 5622 5620 5618
5704 5704 5702 5698 5694 5690 5686 5682 5678 5675 5672 5669 5667 5664 5663 5660 5657 5654 5651 5649 5646 5644 5642 5640 5638 5636 5635 5634 5632 5631 5629 5627 5626 5625 5624 5623 5622 5620 5618 5615 5613 5611 5610
5706 5704 5703 5700 5696 5692 5688 5683 5680 5676 5672 5669 5666 5664 5662 5659 5655 5651 5648 5645 5642 5640 5638 5636 5634 5632 5630 5628 5626 5624 5622 5620 5618 5617 5616 5615 5614 5612 5609 5607 5605 5603 5601
5708 5706 5704 5701 5697 5694 5690 5686 5682 5678 5674 5671 5667 5665 5661 5657 5653 5649 5646 5643 5640 5638 5635 5632 5630 5627 5625 5622 5620 5618 5615 5611 5609 5608 5607 5607 5606 5604 5601 5599 5596 5594 5592
5710 5709 5706 5702 5699 5695 5691 5687 5684 5680 5676 5673 5669 5665 5662 5658 5653 5649 5645 5641 5639 5635 5632 5628 5625 5622 5619 5616 5613 5610 5607 5604 5601 5599 5598 5597 5596 5595 5593 5591 5588 5585 5583
5715 5712 5709 5704 5700 5696 5692 5688 5685 5681 5678 5674 5670 5666 5662 5658 5654 5649 5645 5640 5637 5633 5629 5625 5620 5616 5613 5609 5606 5603 5599 5596 5593 5590 5589 5587 5586 5585 5584 5582 5579 5577 5574
5719 5716 5711 5706 5701 5697 5693 5689 5686 5682 5678 5674 5670 5666 5662 5658 5653 5649 5644 5639 5634 5630 5625 5620 5615 5610 5606 5602 5598 5595 5592 5588 5585 5582 5579 5577 5576 5574 5573 5571 5569 5567 5564
5722 5718 5714 5709 5703 5698 5694 5690 5686 5682 5678 5674 5670 5666 5662 5657 5653 5647 5642 5637 5632 5627 5622 5616 5611 5605 5600 5595 5591 5587 5583 5580 5577 5573 5570 5567 5565 5563 5561 5560 5558 5556 5554
5726 5721 5715 5711 5705 5700 5695 5690 5686 5682 5678 5674 5670 5666 5661 5657 5652 5646 5640 5635 5629 5624 5618 5613 5606 5602 5596 5589 5583 5579 5575 5571 5568 5565 5561 5558 5555 5552 5550 5548 5546 5544 5543
5728 5723 5718 5712 5706 5700 5694 5689 5685 5681 5677 5673 5669 5665 5660 5656 5650 5645 5639 5632 5626 5620 5614 5609 5602 5596 5591 5584 5577 5569 5565 5562 5559 5556 5552 5548 5545 5542 5539 5537 5535 5532 5530
5728 5724 5719 5713 5707 5700 5694 5689 5684 5680 5676 5672 5668 5664 5659 5654 5649 5643 5637 5630 5624 5618 5612 5606 5599 5589 5583 5577 5568 5558 5554 5552 5550 5546 5543 5539 5536 5532 5529 5527 5524 5521 5518
5729 5724 5719 5714 5709 5702 5697 5692 5687 5681 5675 5671 5665 5661 5657 5653 5648 5642 5637 5630 5622 5615 5607 5601 5595 5585 5577 5574 5567 5553 5543 5539 5539 5538 5534 5530 5527 5523 5520 5517 5514 5510 5507
5729 5724 5720 5715 5709 5703 5697 5690 5683 5677 5672 5667 5663 5659 5656 5651 5647 5641 5636 5629 5621 5614 5607 5600 5593 5588 5578 5570 5570 5562 5547 5539 5530 5528 5526 5522 5518 5514 5511 5507 5503 5500 5496
5729 5724 5718 5712 5707 5701 5695 5689 5683 5679 5674 5671 5665 5659 5653 5648 5643 5639 5633 5627 5620 5614 5606 5599 5593 5588 5580 5571 5564 5563 5558 5550 5532 5519 5516 5514 5510 5506 5502 5498 5494 5489 5485
5727 5720 5714 5708 5703 5698 5693 5687 5681 5677 5673 5667 5661 5655 5649 5643 5639 5635 5630 5624 5618 5612 5605 5597 5589 5583 5578 5572 5565 5557 5550 5544 5537 5522 5509 5504 5501 5499 5495 5490 5485 5480 5475
5720 5714 5708 5703 5698 5694 5688 5683 5677 5672 5666 5660 5656 5651 5644 5638 5633 5629 5625 5620 5614 5608 5602 5594 5586 5579 5575 5569 5563 5557 5551 5543 5535 5526 5512 5500 5494 5491 5487 5482 5477 5471 5466